Helicity
275 256 250 211 233 179 133 114 86 73 78 73 42 25 15 23 4 -10 8 25 69 89 82 99 161 185 177 154 142 130 117 121 159 193 200 213 223 211 174 124 85 69 77 108
280 215 188 181 146 140 135 90 59 56 43 58 56 29 15 28 59 47 32 43 72 129 152 176 195 205 186 161 138 121 107 116 141 167 192 189 163 150 126 98 84 62 62 104
238 220 99 123 154 156 146 124 128 97 85 39 62 -4 24 30 53 44 29 41 59 88 172 209 210 209 186 157 125 101 88 97 107 125 160 155 145 137 120 90 63 66 68 85
139 177 228 169 115 112 83 104 88 88 82 49 67 -70 -24 16 53 43 23 49 73 96 131 179 186 178 149 119 98 94 83 63 77 100 95 95 98 83 72 43 15 30 41 48
202 193 124 99 123 138 99 82 84 84 94 96 73 45 -25 29 68 89 86 56 86 111 115 165 163 144 110 93 93 91 67 60 69 69 70 83 70 50 34 -5 23 35 46 53
150 159 150 130 88 145 127 122 139 107 90 77 45 75 -39 -7 23 59 34 31 34 76 105 151 144 131 113 90 86 80 63 86 69 69 56 52 54 44 34 25 29 58 59 36
159 187 244 238 254 196 135 147 152 122 145 80 64 33 38 36 -3 56 86 23 31 74 128 137 114 108 97 81 81 72 75 84 81 84 76 75 62 34 30 27 20 44 57 36
227 214 220 281 228 292 185 161 188 169 137 82 70 -17 -9 32 104 46 71 41 83 85 95 98 103 95 84 79 76 76 75 74 91 98 91 83 77 72 69 57 49 48 39 42
337 299 208 154 98 286 302 196 94 133 88 94 111 107 104 -10 4 10 34 66 97 71 86 102 94 78 70 75 74 69 67 68 80 88 79 77 75 69 46 50 43 29 49 46
366 343 226 191 215 194 201 251 238 217 132 99 103 67 47 56 116 65 36 31 47 60 78 84 76 69 66 78 75 76 76 70 80 94 77 70 80 85 78 68 62 53 37 38
368 335 327 301 291 280 263 199 283 229 157 112 81 35 19 -12 235 171 62 27 29 47 50 58 64 65 71 81 73 77 70 62 70 72 74 74 81 93 93 78 65 65 64 79
16 138 296 267 247 291 179 173 229 301 179 163 137 80 31 51 89 2 24 17 17 44 40 44 62 73 78 85 80 79 65 60 61 55 58 72 93 109 91 67 48 43 56 61
141 70 188 237 213 178 338 434 390 257 231 103 125 124 56 -2 37 6 39 26 -10 18 22 51 73 67 67 85 86 72 68 62 58 50 44 58 69 51 38 41 14 2 -3 -2
86 137 104 157 162 185 181 385 534 511 270 158 122 92 75 106 97 7 -83 -37 -2 0 77 111 111 92 69 77 79 73 72 62 57 59 58 54 27 10 -5 29 9 -17 7 3
72 115 156 112 39 -211 12 186 225 444 407 294 286 277 141 103 85 77 -4 -20 -15 -20 27 111 178 138 116 94 87 83 78 66 55 63 42 33 10 -3 5 9 3 -20 46 69
72 90 80 82 26 -42 -233 -1 24 172 372 212 212 245 143 164 63 77 76 56 18 23 13 84 152 156 165 127 101 84 85 66 56 63 48 25 33 22 6 -17 5 10 14 73
61 44 101 96 74 -94 -283 -181 -64 1 36 92 59 100 216 112 70 45 63 31 82 46 39 113 171 179 186 155 124 90 86 74 69 77 61 28 16 -9 1 -11 7 27 16 47
85 48 44 66 79 95 -74 -58 -87 -135 -20 71 72 98 88 87 55 18 44 46 42 39 45 68 167 194 151 168 123 115 105 90 80 87 77 32 23 19 25 35 32 22 36 54
134 75 62 109 101 89 85 78 -23 -85 -111 -95 -71 15 114 121 85 61 107 149 114 98 57 35 144 190 181 202 164 140 112 115 82 91 84 41 32 31 27 46 46 42 54 58
76 76 75 135 138 74 15 51 108 119 -191 112 141 209 167 200 83 114 209 235 179 181 62 56 102 151 186 234 215 165 126 124 69 91 82 51 27 20 23 31 32 15 26 36
67 101 80 143 128 80 27 -25 16 56 -4 150 169 219 307 189 127 152 203 261 203 186 106 60 111 119 133 236 218 175 135 99 70 122 101 66 32 16 27 36 22 19 36 40
30 46 115 172 143 42 28 66 10 20 39 -3 70 65 130 215 216 201 239 210 219 225 126 57 106 80 127 221 218 172 131 119 114 148 109 69 42 17 18 38 23 23 33 45
61 101 95 129 91 85 48 36 80 29 -7 -16 -12 47 6 107 277 192 232 229 229 226 169 73 105 89 109 178 189 173 135 168 140 158 112 76 47 25 14 35 24 29 19 23
78 89 69 125 6 21 13 42 70 37 -17 -15 3 25 64 -15 101 187 215 223 241 230 187 123 97 94 125 139 148 169 181 174 154 156 117 86 57 35 20 19 8 4 -5 17
74 110 126 55 53 92 17 45 38 29 -3 -19 -26 -35 41 19 13 76 123 218 281 275 218 180 133 99 107 143 153 182 191 176 141 159 117 86 49 22 9 -4 -7 2 1 27
108 111 149 94 116 86 53 54 62 15 -9 -25 -45 -40 -17 16 6 -7 10 126 219 278 144 185 146 104 116 141 169 181 185 180 166 173 128 74 48 11 8 17 36 20 17 29
Wind_Speed
28 33 34 31 34 38 44 42 50 51 50 66 83 87 78 74 79 81 78 71 56 37 39 27 22 20 18 21 24 27 28 28 28 30 27 27 27 25 19 17 19 20 20 20
37 50 38 40 35 39 42 49 53 68 61 52 73 91 86 81 81 81 82 67 59 45 34 26 20 17 19 20 22 25 27 28 30 27 27 31 26 20 18 18 15 15 11 11
47 44 36 39 43 44 48 51 55 64 66 67 72 84 65 52 51 59 60 58 52 39 28 22 15 15 17 19 22 27 30 33 29 23 23 29 26 25 17 14 12 9 4 9
49 49 51 49 50 47 55 52 53 57 69 75 53 80 65 62 60 64 67 50 46 37 22 16 12 12 14 19 22 28 32 30 25 20 20 26 23 19 17 16 11 10 12 20
44 42 42 51 60 50 56 49 46 58 63 70 65 68 63 55 59 40 43 37 35 26 13 8 7 8 12 17 23 29 30 28 25 21 24 26 21 18 16 18 17 14 17 24
51 52 51 53 53 49 51 56 55 55 58 85 68 62 66 50 44 44 50 41 30 17 6 1 3 5 11 18 23 27 27 29 27 26 26 23 19 16 16 17 17 15 14 13
57 57 60 51 54 44 45 55 68 74 74 85 56 60 75 59 57 52 52 42 26 10 4 2 3 6 12 17 22 24 26 28 28 27 28 26 22 19 18 17 16 15 12 9
67 79 54 58 58 54 51 51 65 83 79 83 56 66 54 36 50 53 54 42 17 4 2 3 4 8 13 17 19 22 25 27 29 27 27 28 25 24 23 22 21 24 25 23
72 75 57 59 52 44 56 56 54 66 63 72 58 58 62 45 52 52 47 30 12 4 1 3 5 9 13 17 19 21 24 26 27 27 27 27 26 25 23 22 21 20 23 27
63 86 67 64 53 57 60 41 57 58 79 87 68 62 63 52 50 53 40 24 12 6 4 2 5 9 13 16 18 21 23 25 27 27 26 25 25 24 24 26 26 29 26 23
63 61 73 67 65 65 58 61 54 60 76 85 76 63 43 31 47 45 33 21 13 7 6 5 7 9 13 15 17 19 22 24 26 26 25 25 26 27 29 29 31 35 34 33
50 58 76 78 62 62 70 69 60 67 70 72 76 67 28 35 36 30 22 20 17 12 8 7 8 9 11 14 16 18 21 24 27 27 28 28 29 29 29 31 34 36 30 33
63 59 69 75 75 52 58 56 64 71 67 83 75 65 45 35 29 25 21 18 16 12 13 8 11 12 10 13 15 16 19 23 26 27 29 30 31 32 30 33 37 41 38 27
66 65 65 75 71 67 80 70 59 67 82 84 87 79 63 51 47 47 40 31 27 21 9 7 11 13 9 11 13 14 17 21 25 27 30 33 34 35 34 35 39 42 35 16
64 85 86 90 83 67 75 87 66 72 71 79 72 77 80 70 67 65 61 45 36 35 27 19 7 6 4 7 10 12 14 19 23 26 31 35 37 39 40 38 39 42 19 15
58 76 86 103 98 93 92 91 88 75 82 85 86 88 71 67 61 62 64 56 48 37 38 34 21 10 1 2 5 8 10 16 20 23 29 35 38 41 44 45 46 43 39 18
67 64 70 90 86 90 103 95 95 95 80 81 90 83 83 74 70 65 63 65 67 64 53 42 27 15 7 5 2 5 7 11 16 20 26 32 37 40 42 42 46 50 33 19
63 63 63 72 63 96 85 73 69 75 78 72 79 71 74 72 69 67 61 59 60 62 62 54 46 24 16 7 4 3 5 8 14 17 22 28 32 34 37 40 43 46 48 44
42 56 60 63 73 75 76 76 76 76 75 70 82 72 73 71 61 49 47 53 58 61 64 62 41 22 12 12 8 5 4 6 11 17 20 25 29 32 33 34 36 35 35 36
28 37 52 49 64 73 59 41 41 57 83 50 46 54 59 64 70 57 58 60 62 61 60 47 28 21 13 15 13 9 8 8 13 19 19 22 27 29 30 31 32 32 35 34
30 34 45 56 62 59 57 48 44 63 63 55 52 55 55 59 60 64 63 62 60 60 57 39 23 21 14 17 17 14 12 14 15 16 17 20 24 27 27 28 31 32 33 33
48 40 44 50 55 64 44 49 57 47 44 50 56 58 60 63 63 63 63 60 59 58 52 37 27 27 18 18 20 16 17 13 15 19 19 20 23 25 27 30 29 31 36 37
56 46 46 44 55 55 41 39 34 37 46 49 56 61 63 65 63 63 65 63 60 57 54 45 35 31 25 19 20 19 16 17 19 21 20 21 21 24 27 29 31 31 33 37
54 46 48 45 72 66 62 55 53 57 58 56 55 60 67 70 69 72 71 66 61 57 52 48 42 38 32 27 23 19 19 20 23 25 23 23 26 26 25 25 30 36 38 37
52 40 47 72 65 54 66 62 64 73 70 64 63 65 66 68 74 75 75 69 63 59 53 50 49 45 39 36 29 24 23 24 24 27 27 27 26 31 34 34 39 39 34 35
52 51 49 74 44 54 70 71 65 74 76 74 72 72 71 73 78 76 77 71 65 63 53 52 54 47 44 39 32 28 27 27 26 27 30 34 35 36 37 37 27 20 29 27
Wind_Direction
296 289 282 280 288 294 304 304 303 303 303 299 287 283 288 288 280 274 275 276 282 283 290 290 290 295 302 307 311 315 320 326 329 327 324 318 315 315 315 318 319 317 313 300
293 279 285 296 292 292 293 295 295 298 300 299 293 279 282 284 282 279 275 282 281 284 285 285 286 294 300 307 315 319 325 328 329 329 326 323 325 325 325 330 336 328 320 312
277 297 295 282 288 286 289 289 294 294 298 297 296 284 293 301 301 296 290 290 290 281 265 270 277 292 304 311 318 324 329 331 336 337 340 333 341 344 350 350 356 357 40 137
287 282 288 290 287 285 287 293 289 292 291 286 298 284 290 294 294 294 288 294 294 293 279 256 263 287 305 315 328 332 334 341 349 354 346 335 344 354 11 8 39 69 110 132
294 297 286 279 283 282 287 290 292 291 288 288 285 286 281 296 294 306 315 311 305 307 297 234 248 294 317 329 335 339 346 353 359 3 344 339 349 1 22 13 25 70 104 132
287 291 288 288 290 280 289 287 289 290 288 274 280 279 277 291 295 297 311 311 312 324 342 99 333 351 341 340 343 349 357 358 7 9 355 5 30 52 48 26 25 71 81 108
293 281 284 284 286 289 284 283 279 276 274 272 284 278 273 282 282 289 294 309 321 345 62 93 74 12 350 353 354 4 8 7 16 10 358 13 33 46 36 24 18 34 34 15
293 289 274 274 271 279 276 275 273 270 271 273 280 273 280 295 286 293 293 300 310 325 64 78 39 16 2 359 6 9 14 19 29 14 5 24 33 30 20 358 358 333 324 323
294 286 289 282 271 262 275 271 274 278 278 271 276 275 276 292 289 296 299 294 277 263 305 78 41 21 12 6 8 12 23 34 36 31 23 27 34 38 37 17 13 5 339 321
294 286 282 283 273 265 265 276 271 269 264 260 270 273 272 287 293 294 290 287 273 273 280 15 16 17 11 11 6 14 27 39 41 41 36 29 28 26 15 6 357 340 335 327
300 287 279 281 264 259 263 261 271 272 263 259 263 270 286 288 297 297 290 285 273 267 275 308 337 8 16 13 8 18 27 40 39 38 36 31 18 6 1 2 357 340 336 322
304 289 276 267 269 278 265 264 254 259 261 261 258 260 291 274 307 318 310 293 288 274 284 295 321 352 18 15 10 20 31 35 42 45 54 47 23 12 10 8 10 0 9 348
295 286 283 271 260 272 272 269 267 258 258 253 253 255 268 286 293 304 325 322 311 286 280 298 307 321 3 11 10 18 31 35 47 50 66 62 53 42 34 19 25 25 42 338
287 276 273 268 268 268 262 269 271 259 251 252 251 253 256 267 275 273 289 297 291 288 293 292 311 314 344 5 14 16 25 43 54 50 63 73 71 62 50 41 45 52 26 326
280 271 270 266 266 271 265 257 267 260 254 250 253 256 255 265 267 266 266 282 286 282 279 290 302 323 2 2 5 9 25 50 58 54 64 80 82 86 81 67 51 76 325 321
289 275 269 263 262 262 262 258 255 267 261 255 256 258 262 266 270 268 264 267 273 282 282 285 293 294 259 85 29 27 42 56 58 50 62 80 86 90 89 85 75 62 55 6
285 280 272 264 261 259 254 254 255 256 260 258 254 260 259 262 264 264 266 265 265 269 278 281 284 280 241 171 100 79 60 57 59 56 63 72 78 81 75 66 72 77 50 26
280 274 271 265 261 252 256 260 261 261 261 261 259 264 260 263 265 266 270 271 269 267 268 276 274 278 262 214 173 101 90 79 76 69 71 75 75 69 67 64 64 68 73 70
264 266 266 261 257 264 264 263 261 259 263 262 257 260 265 264 268 266 271 274 274 273 273 269 276 266 236 203 205 163 151 110 96 92 85 82 80 75 68 63 62 57 58 59
266 246 257 266 260 258 269 270 277 268 252 263 267 263 263 263 252 257 273 274 275 276 278 277 280 257 214 196 181 179 178 149 124 111 98 87 87 81 74 71 69 63 66 62
294 256 244 254 263 269 270 269 282 252 250 254 261 265 266 258 260 264 272 272 276 275 276 276 273 250 218 179 173 171 170 156 135 119 105 95 93 87 79 77 77 74 71 67
283 281 256 258 262 264 280 270 263 269 265 264 263 264 266 263 264 269 270 273 273 277 275 270 263 252 233 187 176 179 169 170 147 130 119 108 103 93 88 89 82 79 81 78
273 270 268 261 263 268 280 278 267 271 280 282 276 274 273 271 272 267 266 269 271 277 272 261 257 251 240 205 188 178 192 166 150 138 131 120 109 102 99 97 94 88 86 86
267 269 271 269 240 251 256 265 261 270 278 281 279 278 273 270 263 259 260 264 268 273 270 259 252 248 240 228 219 198 189 171 153 144 139 129 120 112 105 99 100 102 102 96
269 271 268 249 261 274 257 263 268 268 270 275 276 276 270 267 256 255 255 258 262 267 270 257 249 245 240 230 223 205 190 172 162 149 143 134 126 123 118 114 115 113 103 101
269 271 265 253 283 280 270 266 272 266 266 273 272 270 266 259 250 250 249 253 257 260 267 256 247 243 237 227 218 204 187 180 173 156 147 139 133 129 125 121 103 81 94 84